Location: Central Falls
(41.8900°N, 71.3929°W)
Time: 04:42:52
(UTC+00:00)

Vanguard 2 - Pass Details

Date: 06 December 2023
Orbit: 554 x 2918 km, 32.9° (Epoch: 01 March)

Event Time Altitude Azimuth Distance (km) Brightness Sun altitude
Rises 01:47:36 0° 238° (WSW) 6,732 12.7 -49.9°
Reaches altitude 10° 01:52:16 10° 234° (SW) 5,743 12.2 -50.7°
Enters shadow 02:02:55 39° 211° (SSW) 3,671 10.8 -52.6°
Maximum altitude 02:08:52 52° 166° (SSE) 3,035 - -53.6°
Drops below altitude 10° 02:21:14 10° 95° (E) 4,390 - -55.8°
Sets 02:24:16 0° 90° (E) 5,105 - -56.3°
